sat.trackr.live / text

‹ back to catalog

2025-055F

NORAD 63296 · 2025-055F

PAYLOAD ACTIVE UNKNOWN

§ Identity

Operator
Country
PRC
Launch date
2025-03-17
Launch site
JSC
Launch vehicle
Mass (kg)
RCS (m²)

External: N2YO · Heavens-Above · Gunter

§ Orbital elements

Epoch: 2026-05-25T03:52:10.551936Z

Period
94.98 min
Inclination
97.6498°
Eccentricity
0.0011600
Mean motion
15.16176802 rev/d
Perigee alt
509.4 km
Apogee alt
525.4 km
Semi-major
6,895.5 km
B*
3.7885e-4
RAAN
284.7435°
Arg perigee
198.6122°
Mean anomaly
161.4688°
Rev number
6,551

§ Raw data

2025-055F1 63296U 25055F   26145.16123324  .00007257  00000+0  37885-3 0  99972 63296  97.6498 284.7435 0011600 198.6122 161.4688 15.16176802 65519

JSON: /api/v1/satellites/63296 · /tle

For live sub-satellite position, see the globe view (requires WebGL).

§ Visibility from observer

Set your observer location to see the next 7 days of passes ≥ 10°. The values pass through the URL so the page stays shareable.

No JS? Fill the form by hand. The geolocation button needs JavaScript.